,,Stat5,,Stat1,,Stat2,,Stat3,,Stat4,,Wind1,,Wind1,
time,status,PA1M_AVG,status,PR1M_SUM,status,RH1M_AVG,status,SR1M_AVG,status,TA1M_AVG,status,W1dAve1m,status,W1sAve1m,
2001-04-07, 00:00:01,VALID,919.246,VALID,0,VALID,99.2246,VALID,0.0169808,VALID,19.7579,VALID,203,VALID,0,
2001-04-07, 00:01:00,VALID,919.254,VALID,0,VALID,99.236,VALID,0,VALID,19.774,VALID,203,VALID,0,
2001-04-07, 00:02:00,VALID,919.259,VALID,0,VALID,99.2322,VALID,0,VALID,19.7835,VALID,203,VALID,0,
2001-04-07, 00:03:00,VALID,919.25,VALID,0,VALID,99.2437,VALID,0,VALID,19.8036,VALID,203,VALID,0,
2001-04-07, 00:04:00,VALID,919.241,VALID,0,VALID,99.2538,VALID,0,VALID,19.8123,VALID,170,VALID,0.30447,
2001-04-07, 00:05:00,VALID,919.229,VALID,0,VALID,99.2297,VALID,0,VALID,19.7966,VALID,144,VALID,0.721423,
2001-04-07, 00:06:00,VALID,919.211,VALID,0,VALID,99.2373,VALID,0,VALID,19.7874,VALID,130,VALID,0.610008,
2001-04-07, 00:07:00,VALID,919.178,VALID,0,VALID,99.2398,VALID,0,VALID,19.7869,VALID,175,VALID,0.579018,
2001-04-07, 00:08:00,VALID,919.166,VALID,0,VALID,99.2347,VALID,0,VALID,19.7613,VALID,173,VALID,0.254607,
2001-04-07, 00:09:00,VALID,919.152,VALID,0,VALID,99.2297,VALID,0,VALID,19.7459,VALID,183,VALID,0.569366,
2001-04-07, 00:10:00,VALID,919.139,VALID,0,VALID,99.2424,VALID,0,VALID,19.7181,VALID,217,VALID,0.438616,
2001-04-07, 00:11:00,VALID,919.149,VALID,0,VALID,99.2602,VALID,0.0169808,VALID,19.7315,VALID,223,VALID,0.504645,
2001-04-07, 00:12:00,VALID,919.152,VALID,0,VALID,99.264,VALID,0.0169808,VALID,19.7412,VALID,231,VALID,0.250845,
2001-04-07, 00:13:00,VALID,919.141,VALID,0,VALID,99.2589,VALID,0.0169808,VALID,19.7482,VALID,181,VALID,0.470395,
2001-04-07, 00:14:00,VALID,919.123,VALID,0,VALID,99.25,VALID,0.0679233,VALID,19.7253,VALID,190,VALID,0.718967,
2001-04-07, 00:15:00,VALID,919.097,VALID,0,VALID,99.25,VALID,0.0339617,VALID,19.7092,VALID,175,VALID,0.32278,
2001-04-07, 00:16:00,VALID,919.051,VALID,0,VALID,99.2653,VALID,0,VALID,19.7025,VALID,200,VALID,0.0299831,
2001-04-07, 00:17:00,VALID,919.02,VALID,0,VALID,99.2767,VALID,0,VALID,19.7281,VALID,200,VALID,0,
2001-04-07, 00:18:00,VALID,918.997,VALID,0,VALID,99.292,VALID,0,VALID,19.7611,VALID,144,VALID,0.127878,
2001-04-07, 00:19:00,VALID,918.952,VALID,0,VALID,99.2704,VALID,-0.0169808,VALID,19.7512,VALID,171,VALID,0.524704,
2001-04-07, 00:20:00,VALID,918.924,VALID,0,VALID,99.2678,VALID,0,VALID,19.7285,VALID,207,VALID,0.422286,
2001-04-07, 00:21:00,VALID,918.902,VALID,0,VALID,99.2653,VALID,0,VALID,19.7288,VALID,239,VALID,0.0715794,
2001-04-07, 00:22:00,VALID,918.886,VALID,0,VALID,99.2793,VALID,-0.0339617,VALID,19.7425,VALID,268,VALID,0.242188,
2001-04-07, 00:23:00,VALID,918.876,VALID,0,VALID,99.2882,VALID,-0.101885,VALID,19.7201,VALID,241,VALID,0.114784,
2001-04-07, 00:24:00,VALID,918.861,VALID,0,VALID,99.2894,VALID,-0.101885,VALID,19.7203,VALID,238,VALID,0.25071,
2001-04-07, 00:25:00,VALID,918.86,VALID,0,VALID,99.292,VALID,-0.118866,VALID,19.74,VALID,248,VALID,0.0457589,
2001-04-07, 00:26:00,VALID,918.849,VALID,0,VALID,99.2831,VALID,-0.0849042,VALID,19.74,VALID,236,VALID,0.29772,
2001-04-07, 00:27:00,VALID,918.837,VALID,0,VALID,99.2716,VALID,-0.118866,VALID,19.7144,VALID,209,VALID,0.411106,
2001-04-07, 00:28:00,VALID,918.832,VALID,0,VALID,99.2704,VALID,-0.101885,VALID,19.6781,VALID,202,VALID,0.220269,
2001-04-07, 00:29:00,VALID,918.811,VALID,0,VALID,99.2691,VALID,-0.101885,VALID,19.6781,VALID,199,VALID,0.193359,
2001-04-07, 00:30:00,VALID,918.8,VALID,0,VALID,99.278,VALID,-0.0679233,VALID,19.6649,VALID,177,VALID,0.237253,
2001-04-07, 00:31:00,VALID,918.803,VALID,0,VALID,99.2894,VALID,-0.101885,VALID,19.6754,VALID,170,VALID,0.196579,
2001-04-07, 00:32:00,VALID,918.789,VALID,0,VALID,99.2818,VALID,-0.101885,VALID,19.662,VALID,183,VALID,0.444623,
2001-04-07, 00:33:00,VALID,918.765,VALID,0,VALID,99.2818,VALID,-0.0849042,VALID,19.6557,VALID,185,VALID,1.04276,
2001-04-07, 00:34:00,VALID,918.731,VALID,0,VALID,99.2818,VALID,-0.101885,VALID,19.6234,VALID,209,VALID,0.803421,
2001-04-07, 00:35:00,VALID,918.72,VALID,0,VALID,99.278,VALID,-0.0679233,VALID,19.607,VALID,218,VALID,0.782278,
2001-04-07, 00:36:00,VALID,918.684,VALID,0,VALID,99.2742,VALID,-0.101885,VALID,19.5941,VALID,167,VALID,0.898438,
2001-04-07, 00:37:00,VALID,918.648,VALID,0,VALID,99.2843,VALID,0,VALID,19.5641,VALID,220,VALID,0.544866,
2001-04-07, 00:38:00,VALID,918.63,VALID,0,VALID,99.2843,VALID,0.0339617,VALID,19.5603,VALID,228,VALID,0.605569,
2001-04-07, 00:39:00,VALID,918.584,VALID,0,VALID,99.2894,VALID,0.0169808,VALID,19.5405,VALID,213,VALID,0.451468,
2001-04-07, 00:40:00,VALID,918.574,VALID,0,VALID,99.2894,VALID,0,VALID,19.5275,VALID,206,VALID,0.45558,
2001-04-07, 00:41:00,VALID,918.547,VALID,0,VALID,99.3034,VALID,0.0169808,VALID,19.5084,VALID,220,VALID,0.742188,
2001-04-07, 00:42:00,VALID,918.529,VALID,0,VALID,99.2882,VALID,0,VALID,19.4925,VALID,203,VALID,0.733108,
2001-04-07, 00:43:00,VALID,918.499,VALID,0,VALID,99.2945,VALID,0.0169808,VALID,19.4761,VALID,154,VALID,0.583265,
2001-04-07, 00:44:00,VALID,918.465,VALID,0,VALID,99.2958,VALID,0,VALID,19.4634,VALID,164,VALID,0.638021,
2001-04-07, 00:45:00,VALID,918.452,VALID,0,VALID,99.2983,VALID,0.0169808,VALID,19.4503,VALID,162,VALID,0.612459,
2001-04-07, 00:46:00,VALID,918.432,VALID,0,VALID,99.2971,VALID,0,VALID,19.4413,VALID,181,VALID,0.500633,
2001-04-07, 00:47:00,VALID,918.427,VALID,0,VALID,99.3085,VALID,0,VALID,19.4311,VALID,186,VALID,0.192785,
2001-04-07, 00:48:00,VALID,918.392,VALID,0,VALID,99.3136,VALID,0,VALID,19.4311,VALID,186,VALID,0,
2001-04-07, 00:49:00,VALID,918.369,VALID,0,VALID,99.3225,VALID,0,VALID,19.4373,VALID,185,VALID,0.00358953,
2001-04-07, 00:50:00,VALID,918.352,VALID,0,VALID,99.3212,VALID,0,VALID,19.4406,VALID,194,VALID,0.0849095,
2001-04-07, 00:51:00,VALID,918.349,VALID,0,VALID,99.3276,VALID,0,VALID,19.444,VALID,192,VALID,0,
2001-04-07, 00:52:00,VALID,918.343,VALID,0,VALID,99.3199,VALID,0,VALID,19.4284,VALID,188,VALID,0,
2001-04-07, 00:53:00,VALID,918.343,VALID,0,VALID,99.3149,VALID,0.0169808,VALID,19.4048,VALID,151,VALID,0.0406651,
2001-04-07, 00:54:00,VALID,918.325,VALID,0,VALID,99.3123,VALID,0.0169808,VALID,19.3859,VALID,154,VALID,0.317708,
2001-04-07, 00:55:00,VALID,918.298,VALID,0,VALID,99.2983,VALID,0,VALID,19.3702,VALID,158,VALID,0.0154018,
2001-04-07, 00:56:00,VALID,918.302,VALID,0,VALID,99.2958,VALID,0,VALID,19.3315,VALID,158,VALID,0,
2001-04-07, 00:57:00,VALID,918.288,VALID,0,VALID,99.3098,VALID,0,VALID,19.3151,VALID,158,VALID,0,
2001-04-07, 00:58:00,VALID,918.297,VALID,0,VALID,99.3098,VALID,-0.0169808,VALID,19.3086,VALID,158,VALID,0,
2001-04-07, 00:59:00,VALID,918.276,VALID,0,VALID,99.3136,VALID,-0.0169808,VALID,19.3054,VALID,158,VALID,0,
2001-04-07, 01:00:00,VALID,918.252,VALID,0,VALID,99.3212,VALID,0,VALID,19.3056,VALID,158,VALID,0,
2001-04-07, 01:01:00,VALID,918.221,VALID,0,VALID,99.306,VALID,0,VALID,19.2897,VALID,158,VALID,0,
2001-04-07, 01:02:00,VALID,918.202,VALID,0,VALID,99.3199,VALID,0,VALID,19.2992,VALID,158,VALID,0,
2001-04-07, 01:03:00,VALID,918.182,VALID,0,VALID,99.3136,VALID,0.0169808,VALID,19.293,VALID,158,VALID,0.0326891,
2001-04-07, 01:04:00,VALID,918.173,VALID,0,VALID,99.3174,VALID,0,VALID,19.2893,VALID,151,VALID,0.101563,
2001-04-07, 01:05:00,VALID,918.159,VALID,0,VALID,99.3149,VALID,-0.0169808,VALID,19.2736,VALID,143,VALID,0.172492,
2001-04-07, 01:06:00,VALID,918.159,VALID,0,VALID,99.3212,VALID,-0.0169808,VALID,19.2833,VALID,138,VALID,0.360431,
2001-04-07, 01:07:00,VALID,918.147,VALID,0,VALID,99.311,VALID,0,VALID,19.2738,VALID,136,VALID,0.470536,
2001-04-07, 01:08:00,VALID,918.13,VALID,0,VALID,99.3123,VALID,0,VALID,19.2706,VALID,143,VALID,0.389223,
2001-04-07, 01:09:00,VALID,918.1,VALID,0,VALID,99.3085,VALID,0,VALID,19.2607,VALID,149,VALID,0.11482,
2001-04-07, 01:10:00,VALID,918.11,VALID,0,VALID,99.2907,VALID,-0.0169808,VALID,19.2445,VALID,160,VALID,0,
2001-04-07, 01:11:00,VALID,918.102,VALID,0,VALID,99.2907,VALID,0,VALID,19.2187,VALID,176,VALID,0,
2001-04-07, 01:12:00,VALID,918.092,VALID,0,VALID,99.2971,VALID,0,VALID,19.1928,VALID,176,VALID,0,
2001-04-07, 01:13:00,VALID,918.076,VALID,0,VALID,99.3021,VALID,0,VALID,19.1866,VALID,176,VALID,0,
2001-04-07, 01:14:00,VALID,918.052,VALID,0,VALID,99.3187,VALID,0.0339617,VALID,19.1832,VALID,176,VALID,0.0227865,
2001-04-07, 01:15:00,VALID,918.042,VALID,0,VALID,99.3123,VALID,0.0169808,VALID,19.1797,VALID,176,VALID,0.47903,
2001-04-07, 01:16:00,VALID,918.019,VALID,0,VALID,99.2971,VALID,0,VALID,19.1603,VALID,176,VALID,0.44489,
2001-04-07, 01:17:00,VALID,918.019,VALID,0,VALID,99.3021,VALID,0,VALID,19.1287,VALID,175,VALID,0.330882,
2001-04-07, 01:18:00,VALID,918.004,VALID,0,VALID,99.2971,VALID,0,VALID,19.1014,VALID,153,VALID,0.00719572,
2001-04-07, 01:19:00,VALID,917.981,VALID,0,VALID,99.3034,VALID,0.0169808,VALID,19.1059,VALID,160,VALID,0,
2001-04-07, 01:20:00,VALID,917.971,VALID,0,VALID,99.3072,VALID,0,VALID,19.0895,VALID,167,VALID,0,
2001-04-07, 01:21:00,VALID,917.943,VALID,0,VALID,99.3085,VALID,0,VALID,19.0736,VALID,171,VALID,0.539485,
2001-04-07, 01:22:00,VALID,917.926,VALID,0,VALID,99.3149,VALID,0,VALID,19.0671,VALID,166,VALID,0.656027,
2001-04-07, 01:23:00,VALID,917.906,VALID,0,VALID,99.325,VALID,0,VALID,19.0477,VALID,180,VALID,0.59395,
2001-04-07, 01:24:00,VALID,917.909,VALID,0,VALID,99.3225,VALID,0,VALID,19.0542,VALID,201,VALID,0.392992,
2001-04-07, 01:25:00,VALID,917.914,VALID,0,VALID,99.3466,VALID,-0.0339617,VALID,19.0537,VALID,215,VALID,0.421875,
2001-04-07, 01:26:00,VALID,917.904,VALID,0,VALID,99.3644,VALID,0,VALID,19.0803,VALID,214,VALID,0.858319,
2001-04-07, 01:27:00,VALID,917.881,VALID,0,VALID,99.3759,VALID,0,VALID,19.1091,VALID,226,VALID,1.08129,
2001-04-07, 01:28:00,VALID,917.872,VALID,0,VALID,99.3746,VALID,0,VALID,19.1121,VALID,224,VALID,0.985814,
2001-04-07, 01:29:00,VALID,917.869,VALID,0,VALID,99.3644,VALID,0.0169808,VALID,19.1223,VALID,222,VALID,0.758247,
2001-04-07, 01:30:00,VALID,917.86,VALID,0,VALID,99.3721,VALID,0.0169808,VALID,19.125,VALID,223,VALID,0.836143,
2001-04-07, 01:31:00,VALID,917.85,VALID,0,VALID,99.3683,VALID,0,VALID,19.125,VALID,236,VALID,1.20397,
2001-04-07, 01:32:00,VALID,917.814,VALID,0,VALID,99.367,VALID,0,VALID,19.119,VALID,228,VALID,1.11052,
2001-04-07, 01:33:00,VALID,917.792,VALID,0,VALID,99.3644,VALID,0,VALID,19.1123,VALID,232,VALID,1.05674,
2001-04-07, 01:34:00,VALID,917.763,VALID,0,VALID,99.3772,VALID,0,VALID,19.1287,VALID,239,VALID,0.911529,
2001-04-07, 01:35:00,VALID,917.756,VALID,0,VALID,99.3734,VALID,0,VALID,19.1285,VALID,227,VALID,0.984581,
2001-04-07, 01:36:00,VALID,917.738,VALID,0,VALID,99.3734,VALID,0.0169808,VALID,19.125,VALID,215,VALID,0.975718,
2001-04-07, 01:37:00,VALID,917.709,VALID,0,VALID,99.3823,VALID,0,VALID,19.1379,VALID,230,VALID,0.420536,
2001-04-07, 01:38:00,VALID,917.698,VALID,0,VALID,99.3886,VALID,0,VALID,19.1546,VALID,233,VALID,0.826122,
2001-04-07, 01:39:00,VALID,917.703,VALID,0,VALID,99.3975,VALID,0,VALID,19.1479,VALID,234,VALID,0.506866,
2001-04-07, 01:40:00,VALID,917.693,VALID,0,VALID,99.4026,VALID,0,VALID,19.1513,VALID,227,VALID,0.391964,
2001-04-07, 01:41:00,VALID,917.674,VALID,0,VALID,99.4039,VALID,-0.0169808,VALID,19.1541,VALID,217,VALID,0.477618,
2001-04-07, 01:42:00,VALID,917.662,VALID,0,VALID,99.3975,VALID,0,VALID,19.1603,VALID,202,VALID,0.33826,
2001-04-07, 01:43:00,VALID,917.658,VALID,0,VALID,99.3975,VALID,0.0169808,VALID,19.1479,VALID,191,VALID,0.516447,
2001-04-07, 01:44:00,VALID,917.645,VALID,0,VALID,99.3899,VALID,0,VALID,19.1382,VALID,181,VALID,0.235026,
2001-04-07, 01:45:00,VALID,917.626,VALID,0,VALID,99.4077,VALID,0,VALID,19.1379,VALID,172,VALID,0.0717516,
2001-04-07, 01:46:00,VALID,917.608,VALID,0,VALID,99.3912,VALID,-0.0169808,VALID,19.1446,VALID,181,VALID,0.252111,
2001-04-07, 01:47:00,VALID,917.582,VALID,0,VALID,99.3873,VALID,-0.0169808,VALID,19.122,VALID,168,VALID,0.303079,
2001-04-07, 01:48:00,VALID,917.557,VALID,0,VALID,99.3873,VALID,0.0169808,VALID,19.129,VALID,152,VALID,0.451891,
2001-04-07, 01:49:00,VALID,917.54,VALID,0,VALID,99.3988,VALID,0,VALID,19.1255,VALID,166,VALID,0.372889,
2001-04-07, 01:50:00,VALID,917.524,VALID,0,VALID,99.4115,VALID,0,VALID,19.1265,VALID,171,VALID,0.0106908,
2001-04-07, 01:51:00,VALID,917.509,VALID,0,VALID,99.3975,VALID,0,VALID,19.1126,VALID,171,VALID,0,
2001-04-07, 01:52:00,VALID,917.498,VALID,0,VALID,99.3886,VALID,0,VALID,19.0962,VALID,180,VALID,0,
2001-04-07, 01:53:00,VALID,917.477,VALID,0,VALID,99.381,VALID,0,VALID,19.0837,VALID,182,VALID,0,
2001-04-07, 01:54:00,VALID,917.473,VALID,0,VALID,99.3784,VALID,0,VALID,19.051,VALID,183,VALID,0.314394,
2001-04-07, 01:55:00,VALID,917.478,VALID,0,VALID,99.3797,VALID,0,VALID,19.0383,VALID,196,VALID,0.604241,
2001-04-07, 01:56:00,VALID,917.473,VALID,0,VALID,99.395,VALID,-0.0169808,VALID,19.0351,VALID,194,VALID,0.982264,
2001-04-07, 01:57:00,VALID,917.471,VALID,0,VALID,99.3873,VALID,0,VALID,19.0288,VALID,190,VALID,0.897593,
2001-04-07, 01:58:00,VALID,917.458,VALID,0,VALID,99.3924,VALID,-0.0339617,VALID,19.009,VALID,184,VALID,0.810238,
2001-04-07, 01:59:00,VALID,917.432,VALID,0,VALID,99.3823,VALID,-0.0339617,VALID,18.9926,VALID,177,VALID,0.851997,
2001-04-07, 02:00:00,VALID,917.418,VALID,0,VALID,99.3988,VALID,0,VALID,19.006,VALID,184,VALID,0.838199,
2001-04-07, 02:01:00,VALID,917.403,VALID,0,VALID,99.4115,VALID,0,VALID,19.0127,VALID,183,VALID,0.646326,
2001-04-07, 02:02:00,VALID,917.376,VALID,0,VALID,99.4064,VALID,-0.0169808,VALID,19.0087,VALID,185,VALID,0.34421,
2001-04-07, 02:03:00,VALID,917.352,VALID,0,VALID,99.3975,VALID,0,VALID,19.0256,VALID,195,VALID,0,
2001-04-07, 02:04:00,VALID,917.34,VALID,0,VALID,99.4102,VALID,-0.0339617,VALID,19.0189,VALID,195,VALID,0.406461,
2001-04-07, 02:05:00,VALID,917.311,VALID,0,VALID,99.4102,VALID,0,VALID,19.0316,VALID,217,VALID,0.342311,
2001-04-07, 02:06:00,VALID,917.309,VALID,0,VALID,99.4001,VALID,0.0169808,VALID,19.0415,VALID,197,VALID,0.500211,
2001-04-07, 02:07:00,VALID,917.305,VALID,0,VALID,99.3861,VALID,-0.0849042,VALID,19.0393,VALID,218,VALID,0.761607,
2001-04-07, 02:08:00,VALID,917.282,VALID,0,VALID,99.3873,VALID,-0.118866,VALID,19.0268,VALID,202,VALID,0.754407,
2001-04-07, 02:09:00,VALID,917.27,VALID,0,VALID,99.3784,VALID,-0.101885,VALID,19.0109,VALID,208,VALID,0.771307,
2001-04-07, 02:10:00,VALID,917.268,VALID,0,VALID,99.3708,VALID,-0.101885,VALID,18.9913,VALID,200,VALID,0.696652,
2001-04-07, 02:11:00,VALID,917.258,VALID,0,VALID,99.3975,VALID,-0.118866,VALID,18.9982,VALID,194,VALID,0.615076,
2001-04-07, 02:12:00,VALID,917.247,VALID,0,VALID,99.3937,VALID,-0.101885,VALID,19.001,VALID,210,VALID,0.533573,
2001-04-07, 02:13:00,VALID,917.236,VALID,0,VALID,99.3873,VALID,-0.169808,VALID,19.0012,VALID,185,VALID,0.737664,
2001-04-07, 02:14:00,VALID,917.216,VALID,0,VALID,99.3734,VALID,-0.118866,VALID,18.992,VALID,172,VALID,0.707031,
2001-04-07, 02:15:00,VALID,917.214,VALID,0,VALID,99.3759,VALID,-0.0849042,VALID,18.9523,VALID,143,VALID,0.55551,
2001-04-07, 02:16:00,VALID,917.187,VALID,0,VALID,99.3632,VALID,-0.101885,VALID,18.9232,VALID,145,VALID,0.640414,
2001-04-07, 02:17:00,VALID,917.172,VALID,0,VALID,99.3466,VALID,-0.0849042,VALID,18.8976,VALID,159,VALID,0.529182,
2001-04-07, 02:18:00,VALID,917.153,VALID,0,VALID,99.3352,VALID,-0.118866,VALID,18.8815,VALID,182,VALID,0.115748,
2001-04-07, 02:19:00,VALID,917.131,VALID,0,VALID,99.3276,VALID,-0.118866,VALID,18.8494,VALID,200,VALID,0.524493,
2001-04-07, 02:20:00,VALID,917.109,VALID,0,VALID,99.3288,VALID,-0.101885,VALID,18.8402,VALID,196,VALID,0.611842,
2001-04-07, 02:21:00,VALID,917.087,VALID,0,VALID,99.3339,VALID,-0.101885,VALID,18.8266,VALID,183,VALID,0.736698,
2001-04-07, 02:22:00,VALID,917.069,VALID,0,VALID,99.3263,VALID,-0.0169808,VALID,18.8122,VALID,163,VALID,0.530134,
2001-04-07, 02:23:00,VALID,917.051,VALID,0,VALID,99.3314,VALID,0.0169808,VALID,18.7979,VALID,163,VALID,0.352364,
2001-04-07, 02:24:00,VALID,917.023,VALID,0,VALID,99.3263,VALID,0.0169808,VALID,18.7986,VALID,145,VALID,0.431818,
2001-04-07, 02:25:00,VALID,917.014,VALID,0,VALID,99.3263,VALID,0.0679233,VALID,18.7958,VALID,118,VALID,0.491964,
2001-04-07, 02:26:00,VALID,916.991,VALID,0,VALID,99.325,VALID,0.0509425,VALID,18.7497,VALID,144,VALID,0.364654,
2001-04-07, 02:27:00,VALID,917.003,VALID,0,VALID,99.3263,VALID,0.0509425,VALID,18.7273,VALID,148,VALID,0.246199,
2001-04-07, 02:28:00,VALID,916.991,VALID,0,VALID,99.3161,VALID,0.0169808,VALID,18.7012,VALID,147,VALID,0.0271382,
2001-04-07, 02:29:00,VALID,916.979,VALID,0,VALID,99.3212,VALID,0.0339617,VALID,18.6886,VALID,147,VALID,0.000868056,
2001-04-07, 02:30:00,VALID,916.971,VALID,0,VALID,99.3263,VALID,0,VALID,18.6789,VALID,146,VALID,0.0501645,
2001-04-07, 02:31:00,VALID,916.976,VALID,0,VALID,99.3339,VALID,0.0509425,VALID,18.6756,VALID,136,VALID,0.212204,
2001-04-07, 02:32:00,VALID,916.968,VALID,0,VALID,99.3314,VALID,0,VALID,18.659,VALID,136,VALID,0.242417,
2001-04-07, 02:33:00,VALID,916.951,VALID,0,VALID,99.3263,VALID,0,VALID,18.6567,VALID,140,VALID,0.465461,
2001-04-07, 02:34:00,VALID,916.945,VALID,0,VALID,99.3149,VALID,0,VALID,18.6369,VALID,161,VALID,0.308066,
2001-04-07, 02:35:00,VALID,916.94,VALID,0,VALID,99.3085,VALID,0.0169808,VALID,18.6145,VALID,178,VALID,0.214433,
2001-04-07, 02:36:00,VALID,916.932,VALID,0,VALID,99.3034,VALID,0.0339617,VALID,18.5984,VALID,198,VALID,0.591639,
2001-04-07, 02:37:00,VALID,916.934,VALID,0,VALID,99.3085,VALID,0.0339617,VALID,18.5862,VALID,199,VALID,0.609821,
2001-04-07, 02:38:00,VALID,916.91,VALID,0,VALID,99.3174,VALID,0.0169808,VALID,18.5631,VALID,206,VALID,0.677484,
2001-04-07, 02:39:00,VALID,916.887,VALID,0,VALID,99.3479,VALID,0.0509425,VALID,18.5631,VALID,199,VALID,0.782434,
2001-04-07, 02:40:00,VALID,916.85,VALID,0,VALID,99.3772,VALID,0,VALID,18.5852,VALID,207,VALID,0.652232,
2001-04-07, 02:41:00,VALID,916.828,VALID,0,VALID,99.3721,VALID,0.0169808,VALID,18.5919,VALID,210,VALID,0.646748,
2001-04-07, 02:42:00,VALID,916.801,VALID,0,VALID,99.3912,VALID,0.0339617,VALID,18.6118,VALID,215,VALID,0.750845,
2001-04-07, 02:43:00,VALID,916.79,VALID,0,VALID,99.3975,VALID,0,VALID,18.6247,VALID,222,VALID,0.982936,
2001-04-07, 02:44:00,VALID,916.75,VALID,0,VALID,99.4039,VALID,0,VALID,18.6406,VALID,214,VALID,0.898438,
2001-04-07, 02:45:00,VALID,916.728,VALID,0,VALID,99.3797,VALID,0,VALID,18.6374,VALID,210,VALID,0.576686,
2001-04-07, 02:46:00,VALID,916.714,VALID,0,VALID,99.3759,VALID,0,VALID,18.6182,VALID,211,VALID,0.616554,
2001-04-07, 02:47:00,VALID,916.706,VALID,0,VALID,99.3683,VALID,0,VALID,18.6182,VALID,211,VALID,0.694853,
2001-04-07, 02:48:00,VALID,916.696,VALID,0,VALID,99.3721,VALID,0,VALID,18.6088,VALID,206,VALID,0.808594,
2001-04-07, 02:49:00,VALID,916.7,VALID,0,VALID,99.3784,VALID,0,VALID,18.6083,VALID,207,VALID,0.898226,
2001-04-07, 02:50:00,VALID,916.722,VALID,0,VALID,99.3873,VALID,0.0169808,VALID,18.6184,VALID,202,VALID,0.918791,
2001-04-07, 02:51:00,VALID,916.733,VALID,0,VALID,99.4001,VALID,0,VALID,18.6376,VALID,191,VALID,1.12437,
2001-04-07, 02:52:00,VALID,916.74,VALID,0,VALID,99.4001,VALID,0,VALID,18.6477,VALID,188,VALID,1.03103,
2001-04-07, 02:53:00,VALID,916.736,VALID,0,VALID,99.3835,VALID,0.0169808,VALID,18.651,VALID,187,VALID,0.875,
2001-04-07, 02:54:00,VALID,916.744,VALID,0,VALID,99.3873,VALID,0.0169808,VALID,18.6277,VALID,192,VALID,0.921875,
2001-04-07, 02:55:00,VALID,916.747,VALID,0,VALID,99.3759,VALID,0,VALID,18.6247,VALID,192,VALID,0.979464,
2001-04-07, 02:56:00,VALID,916.754,VALID,0,VALID,99.3644,VALID,0.0169808,VALID,18.6083,VALID,197,VALID,0.86761,
2001-04-07, 02:57:00,VALID,916.765,VALID,0,VALID,99.3556,VALID,0.0169808,VALID,18.6085,VALID,196,VALID,0.894426,
2001-04-07, 02:58:00,VALID,916.752,VALID,0,VALID,99.3352,VALID,0,VALID,18.5924,VALID,193,VALID,0.793791,
2001-04-07, 02:59:00,VALID,916.763,VALID,0,VALID,99.3187,VALID,0,VALID,18.5732,VALID,198,VALID,1.10959,
2001-04-07, 03:00:00,VALID,916.764,VALID,0,VALID,99.3225,VALID,0.0169808,VALID,18.5569,VALID,199,VALID,0.575041,
2001-04-07, 03:01:00,VALID,916.743,VALID,0,VALID,99.306,VALID,0,VALID,18.5571,VALID,187,VALID,0.961149,
2001-04-07, 03:02:00,VALID,916.736,VALID,0,VALID,99.2958,VALID,0.0169808,VALID,18.5504,VALID,185,VALID,1.30538,
2001-04-07, 03:03:00,VALID,916.731,VALID,0,VALID,99.2945,VALID,0.0339617,VALID,18.5665,VALID,168,VALID,0.728824,
2001-04-07, 03:04:00,VALID,916.714,VALID,0,VALID,99.2678,VALID,0,VALID,18.5603,VALID,165,VALID,0.732052,
2001-04-07, 03:05:00,VALID,916.725,VALID,0,VALID,99.2576,VALID,0,VALID,18.5569,VALID,171,VALID,1.02426,
2001-04-07, 03:06:00,VALID,916.7,VALID,0,VALID,99.2424,VALID,0,VALID,18.5502,VALID,178,VALID,1.09987,
2001-04-07, 03:07:00,VALID,916.69,VALID,0,VALID,99.2386,VALID,0.0169808,VALID,18.5506,VALID,198,VALID,0.904241,
2001-04-07, 03:08:00,VALID,916.687,VALID,0,VALID,99.2284,VALID,0.0339617,VALID,18.5442,VALID,197,VALID,0.707332,
2001-04-07, 03:09:00,VALID,916.687,VALID,0,VALID,99.2309,VALID,0.0169808,VALID,18.5276,VALID,199,VALID,1.06155,
2001-04-07, 03:10:00,VALID,916.67,VALID,0,VALID,99.2564,VALID,0,VALID,18.531,VALID,204,VALID,1.06585,
2001-04-07, 03:11:00,VALID,916.67,VALID,0,VALID,99.2564,VALID,0,VALID,18.5186,VALID,205,VALID,0.76837,
2001-04-07, 03:12:00,VALID,916.647,VALID,0,VALID,99.2615,VALID,0,VALID,18.5181,VALID,202,VALID,0.834882,
2001-04-07, 03:13:00,VALID,916.635,VALID,0,VALID,99.2564,VALID,0.0169808,VALID,18.5086,VALID,192,VALID,0.636924,
2001-04-07, 03:14:00,VALID,916.648,VALID,0,VALID,99.2398,VALID,0.0169808,VALID,18.4987,VALID,193,VALID,0.979167,
2001-04-07, 03:15:00,VALID,916.642,VALID,0,VALID,99.2411,VALID,0.0169808,VALID,18.496,VALID,198,VALID,0.852385,
2001-04-07, 03:16:00,VALID,916.626,VALID,0,VALID,99.2398,VALID,0,VALID,18.4957,VALID,197,VALID,0.899282,
2001-04-07, 03:17:00,VALID,916.626,VALID,0,VALID,99.2411,VALID,0,VALID,18.4987,VALID,208,VALID,0.912224,
2001-04-07, 03:18:00,VALID,916.615,VALID,0,VALID,99.2195,VALID,0.0169808,VALID,18.4983,VALID,204,VALID,1.28475,
2001-04-07, 03:19:00,VALID,916.605,VALID,0,VALID,99.203,VALID,0,VALID,18.5119,VALID,209,VALID,1.17188,
2001-04-07, 03:20:00,VALID,916.591,VALID,0,VALID,99.1724,VALID,0,VALID,18.5181,VALID,202,VALID,1.02118,
2001-04-07, 03:21:00,VALID,916.567,VALID,0,VALID,99.1496,VALID,0.0169808,VALID,18.528,VALID,209,VALID,0.903294,
2001-04-07, 03:22:00,VALID,916.557,VALID,0,VALID,99.1127,VALID,-0.0169808,VALID,18.5317,VALID,198,VALID,1.22879,
2001-04-07, 03:23:00,VALID,916.561,VALID,0,VALID,99.0771,VALID,-0.0339617,VALID,18.5386,VALID,208,VALID,0.878606,
2001-04-07, 03:24:00,VALID,916.569,VALID,0,VALID,99.0453,VALID,-0.0339617,VALID,18.5419,VALID,198,VALID,1.15175,
2001-04-07, 03:25:00,VALID,916.577,VALID,0,VALID,98.9919,VALID,-0.0339617,VALID,18.549,VALID,201,VALID,1.20446,
2001-04-07, 03:26:00,VALID,916.598,VALID,0,VALID,98.9359,VALID,0,VALID,18.5426,VALID,199,VALID,1.13429,
2001-04-07, 03:27:00,VALID,916.61,VALID,0,VALID,98.9118,VALID,-0.0339617,VALID,18.5327,VALID,193,VALID,1.06672,
2001-04-07, 03:28:00,VALID,916.623,VALID,0,VALID,98.8571,VALID,-0.0679233,VALID,18.549,VALID,191,VALID,1.00473,
2001-04-07, 03:29:00,VALID,916.644,VALID,0,VALID,98.8024,VALID,-0.0849042,VALID,18.556,VALID,190,VALID,0.732856,
2001-04-07, 03:30:00,VALID,916.648,VALID,0,VALID,98.749,VALID,-0.0509425,VALID,18.549,VALID,205,VALID,1.12726,
2001-04-07, 03:31:00,VALID,916.638,VALID,0,VALID,98.6892,VALID,-0.0679233,VALID,18.549,VALID,201,VALID,0.751056,
2001-04-07, 03:32:00,VALID,916.647,VALID,0,VALID,98.6562,VALID,-0.0339617,VALID,18.5649,VALID,209,VALID,0.97909,
2001-04-07, 03:33:00,VALID,916.665,VALID,0,VALID,98.6371,VALID,-0.0509425,VALID,18.5647,VALID,223,VALID,1.39905,
2001-04-07, 03:34:00,VALID,916.685,VALID,0,VALID,98.6409,VALID,-0.0509425,VALID,18.5783,VALID,216,VALID,1.59945,
2001-04-07, 03:35:00,VALID,916.687,VALID,0,VALID,98.632,VALID,-0.0169808,VALID,18.5555,VALID,219,VALID,1.47821,
2001-04-07, 03:36:00,VALID,916.707,VALID,0,VALID,98.6282,VALID,-0.0679233,VALID,18.5331,VALID,208,VALID,0.898438,
2001-04-07, 03:37:00,VALID,916.711,VALID,0,VALID,98.6536,VALID,-0.0679233,VALID,18.4974,VALID,208,VALID,1.20335,